User: anonymous   Login
Location: Morlupo
(42.1333°N, 12.5000°E)
Time: 13:12:36
(UTC+00:00)
Language:

SJ-11-01 - Orbit

View from above orbital plane
View from above orbital plane
View from above satellite
View from above satellite

Ground track
Ground track

The orbit data is extracted from the following two-line orbital elements,

1 36088U 09061A   20331.06802460  .00000085  00000-0  26971-4 0  9998
2 36088  97.9760 358.1164 0010233 292.0299  67.9823 14.60184485588192
Epoch (UTC): 26 November 2020 01:37:57
Eccentricity: 0.0010233
inclination: 97.9760°
perigee height: 685 km
apogee height: 700 km
right ascension of ascending node: 358.1164°
argument of perigee: 292.0299°
revolutions per day: 14.60184485
mean anomaly at epoch: 67.9823°
orbit number at epoch: 58819

The dashed part of the orbit path shows where the satellite is in the earth's shadow,  

DLR